x

9076070 - S.w. Pier, Mi (swpm4) Weather Station

2:30am - Sun 30th Apr 2017 All times are CDT. -5 hours from GMT.

  • Wind
    6mph, 7mph gusts
  • Air Temp 43°f
  • Sea Pressure 1024.3mb
  • 9076070 - S.w. Pier, Mi
  • 9076070 - S.w. Pier, Mi

More Historic Weather Station data

Upgrade to MSW Pro to gain access to the past 30 days of data for over 8000 Wavebouys and Weather Stations around the globe.

Join Pro

Comparision Forecast

View Surf forecast
   
Sun 04/30 2:30am 6 7 mph 1024.3mb 43f
2:24am 6 7 mph 1024.3mb 43f
2:18am 5 6 mph 1024.1mb 42f
2:12am 5 7 mph 1024mb 42f
2:06am 6 7 mph 1023.7mb 42f
2:00am 6 7 mph 1023.9mb 42f
1:54am 5 7 mph 1024.1mb 42f
1:48am 6 7 mph 1024mb -
1:42am 5 6 mph 1024.2mb -
1:36am 2 6 mph 1024.4mb -
1:30am 5 6 mph 1024.3mb 41f
1:24am 2
mph
1024.5mb 40f
1:18am 3
mph
1024.6mb 40f
1:12am 3
mph
1024.6mb 41f
1:06am 3
mph
1024.6mb 41f
1:00am 3 5 mph 1024.7mb 41f
12:54am 5 6 mph 1024.8mb 41f
12:48am 5 6 mph 1025mb 41f
12:42am 5 6 mph 1025.2mb 41f
12:36am 5 6 mph 1025.3mb 41f
12:30am 5 8 mph 1025.3mb 41f
12:24am 5 7 mph 1025.2mb 41f
12:18am 3 5 mph 1025.2mb 40f
12:12am 2 3 mph 1025.3mb 40f
12:06am 1 2 mph 1025.4mb 39f
12:00am 1 2 mph 1025.4mb 38f
Sat 04/29 11:54pm 1 2 mph 1025.6mb 38f
11:48pm 2 3 mph 1025.7mb 39f
11:42pm 2
mph
1025.9mb 39f
11:36pm 2 3 mph 1025.9mb 39f
11:30pm 2 3 mph 1025.9mb 39f
11:24pm 3
mph
1025.8mb 39f
11:18pm 2 3 mph 1025.9mb 39f
11:12pm 3
mph
1025.9mb 38f
11:06pm 3 5 mph 1026mb 38f
11:00pm 3
mph
1026.1mb 38f
10:54pm 3
mph
1026mb 38f
10:48pm 3
mph
1026mb 39f
10:42pm 3
mph
1026.1mb 39f
10:36pm 3
mph
1026mb 39f
10:30pm  -  3 mph 1026.1mb 40f
10:24pm 3 5 mph 1026.1mb 40f
10:18pm 3
mph
1026.2mb 40f
10:12pm 2 3 mph 1026.1mb 40f
10:06pm 2 5 mph 1026.1mb 40f
10:00pm 3 5 mph 1026.2mb 40f
9:54pm 3 5 mph 1026.1mb 40f
9:48pm 3 6 mph 1026mb 40f
9:42pm 5 6 mph 1025.8mb 41f
9:36pm 3 5 mph 1025.6mb 41f
9:30pm 2 3 mph 1025.5mb 40f
9:24pm 3
mph
1025.3mb 40f
9:18pm 3 5 mph 1025.3mb 40f
9:12pm 5 6 mph 1025.2mb 40f
9:06pm 5 6 mph 1025mb 41f
9:00pm 6 7 mph 1024.9mb 41f
8:54pm 6 8 mph 1024.9mb 40f
8:48pm 6 8 mph 1025mb 40f
8:42pm 6 7 mph 1024.9mb 40f
8:36pm 5 7 mph 1024.9mb 40f
8:30pm 6 7 mph 1024.8mb 40f
8:24pm 6 7 mph 1024.8mb 40f
8:18pm 6 9 mph 1024.7mb 40f
8:12pm 5 7 mph 1024.8mb 40f
8:06pm 5 7 mph 1024.7mb 40f
8:00pm 5 7 mph 1024.8mb 40f
7:48pm 5 8 mph 1024.6mb 40f
7:42pm 6 7 mph 1024.8mb 40f
7:36pm 2 6 mph 1025mb 40f
7:30pm 5 8 mph 1025.1mb 40f
7:24pm 5 7 mph 1025.1mb 40f
7:18pm 6 9 mph 1024.9mb 40f
7:12pm 7 10 mph 1024.8mb 40f
7:06pm 7 15 mph 1024.9mb 39f
7:00pm 8 13 mph 1024.8mb 39f
6:54pm 8 17 mph 1024.9mb 39f
6:48pm 10 15 mph 1024.8mb 39f
6:42pm 11 16 mph 1024.8mb 39f
6:36pm 11 20 mph 1024.9mb 39f
6:30pm 13 18 mph 1025.1mb 39f
6:24pm 13 18 mph 1025.1mb 39f
6:18pm 14 18 mph 1025.2mb 39f
6:12pm 14 21 mph 1025.4mb 40f
6:06pm 13 21 mph 1025.3mb 40f
6:00pm 13 20 mph 1025.4mb 40f
5:48pm 15 20 mph 1025.5mb 40f
5:42pm 15 22 mph 1025.5mb 40f
5:36pm 14 21 mph 1025.6mb 41f
5:30pm 13 17 mph 1025.6mb 41f
5:24pm 14 20 mph 1025.7mb 41f
5:18pm 15 20 mph 1025.7mb 41f
5:12pm 13 18 mph 1025.6mb 41f
5:06pm 13 22 mph 1025.5mb 41f
5:00pm 17 20 mph 1025.5mb 41f
4:48pm 10 15 mph 1025.5mb 42f
4:42pm 16 18 mph 1025.4mb 42f
4:36pm 14 17 mph 1025.3mb 42f
4:30pm 15 18 mph 1025.2mb 42f
4:24pm 16 21 mph 1025.2mb 42f
4:18pm 13 16 mph 1025.1mb 42f
4:12pm 14 18 mph 1025.1mb 42f
4:06pm 15 18 mph 1025mb 42f
4:00pm 10 17 mph 1024.9mb 43f
3:54pm 13 17 mph 1025mb 43f
3:48pm 14 17 mph 1025.1mb 42f
3:42pm 13 17 mph 1025.2mb 43f
3:36pm 15 21 mph 1025.3mb 42f
3:30pm 16 20 mph 1025.4mb 42f
3:24pm 15 21 mph 1025.6mb 42f
3:18pm 16 22 mph 1025.6mb 42f
3:12pm 20 22 mph 1025.6mb 42f
3:06pm 17 22 mph 1025.5mb 42f
3:00pm 16 18 mph 1025.4mb 42f
2:54pm 13 21 mph 1025.4mb 42f
2:48pm 14 20 mph 1025.3mb 42f
2:42pm 17 22 mph 1025.4mb 41f
2:36pm 20 22 mph 1025.4mb 41f
2:30pm 15 18 mph 1025.4mb 41f
2:24pm 15 21 mph 1025.3mb 41f
2:18pm 16 21 mph 1025.4mb 40f
2:12pm 17 21 mph 1025.3mb 40f
2:06pm 16 20 mph 1025.4mb 40f
2:00pm 16 20 mph 1025.5mb 40f
1:54pm 17 22 mph 1025.4mb 40f
1:48pm 17 22 mph 1025.4mb 40f
1:42pm 18 22 mph 1025.2mb 40f
1:36pm 20 22 mph 1025.1mb 40f
1:30pm 15 21 mph 1025.1mb 40f
1:24pm 16 22 mph 1025.2mb 40f
1:18pm 15 18 mph 1025.2mb 40f
1:12pm 14 20 mph 1025.2mb 40f
1:06pm 16 21 mph 1025.1mb 39f
1:00pm 17 21 mph 1025.1mb 39f
12:54pm 16 20 mph 1025.1mb 39f
12:48pm 16 21 mph 1025mb 39f
12:42pm 16 23 mph 1024.9mb 39f
12:36pm 17 21 mph 1024.8mb 39f
12:30pm 17 22 mph 1024.7mb 39f
12:24pm 20 22 mph 1024.5mb 38f
12:18pm 17 22 mph 1024.4mb 39f
12:12pm 17 22 mph 1024.3mb 39f
12:06pm 20 25 mph 1024.3mb 39f
12:00pm 16 20 mph 1024.3mb 39f
11:54am 17 21 mph 1024.2mb 39f
11:48am 13 20 mph 1024.2mb 39f
11:42am 15 21 mph 1024.1mb 39f
11:36am 16 18 mph 1024.2mb 39f
11:30am 11 17 mph 1024.3mb 39f
11:24am 13 17 mph 1024.2mb 39f
11:18am 13 20 mph 1024.2mb 39f
11:12am 11 18 mph 1024.1mb 38f
11:06am 15 18 mph 1024.1mb 38f
11:00am 13 22 mph 1024.1mb 38f
10:54am 16 20 mph 1024.1mb 38f
10:48am 15 21 mph 1024mb 38f
10:42am 15 22 mph 1024mb 38f
10:36am 17 22 mph 1023.9mb 38f
10:30am 15 26 mph 1023.8mb 38f
10:24am 14 17 mph 1023.9mb 38f
10:18am 14 23 mph 1024mb 38f
10:12am 18 25 mph 1024mb 38f
10:06am 16 20 mph 1024mb 37f
10:00am 16 22 mph 1024mb 37f
9:54am 18 23 mph 1024mb 37f
9:48am 13 21 mph 1023.9mb 38f
9:42am 16 22 mph 1023.7mb 37f
9:36am 16 20 mph 1023.8mb 37f
9:30am 17 21 mph 1023.9mb 37f
9:24am 16 21 mph 1024mb 37f
9:18am 15 22 mph 1024.1mb 37f
9:12am 14 17 mph 1024mb 37f
9:06am 16 22 mph 1024.1mb 36f
9:00am 17 21 mph 1024.1mb 37f
8:54am 16 20 mph 1024mb 36f
8:48am 14 20 mph 1024.1mb 36f
8:42am 14 18 mph 1024mb 36f
8:36am 14 18 mph 1024mb 36f
8:30am 13 22 mph 1023.7mb 36f
8:24am 14 22 mph 1023.7mb 36f
8:18am 20 22 mph 1023.5mb 36f
8:12am 15 21 mph 1023.5mb 36f
8:06am 15 21 mph 1023.2mb 36f
8:00am 13 17 mph 1022.7mb 36f
7:54am 15 20 mph 1022.5mb 36f
7:48am 10 18 mph 1022.4mb 36f
7:42am 13 16 mph 1022.5mb 36f
7:36am 14 18 mph 1022.6mb 36f
7:30am 14 17 mph 1022.6mb 36f
7:24am 11 16 mph 1023mb 36f
7:18am 13 15 mph 1023.4mb 36f
7:12am 14 20 mph 1023.3mb 36f
7:06am 15 18 mph 1022.9mb 36f
7:00am 15 21 mph 1023.4mb 36f
6:54am 14 21 mph 1023.7mb 36f
6:48am 14 18 mph 1024.2mb 36f
6:42am 14 17 mph 1024mb 36f
6:36am 11 16 mph 1022.5mb 36f
6:30am 13 17 mph 1021.1mb 36f
6:24am 13 17 mph 1021.2mb 36f
6:18am 13 17 mph 1021.3mb 36f
6:12am 15 20 mph 1021.2mb 36f
6:06am 14 21 mph 1020.3mb 36f
6:00am 14 21 mph 1020mb 36f
5:54am 15 20 mph 1020mb 36f
5:48am 14 20 mph 1019.5mb 36f
5:42am 13 17 mph 1019.2mb 36f
5:36am 13 16 mph 1019mb 36f
5:30am 14 22 mph 1019.2mb 36f
5:24am 13 21 mph 1019.3mb 36f
5:18am 14 23 mph 1019.2mb 36f
5:12am 14 23 mph 1018.9mb 36f
5:06am 13 18 mph 1018.8mb 36f
5:00am 15 24 mph 1018.6mb 36f
4:54am 15 22 mph 1018.3mb 36f
4:48am 15 21 mph 1018.2mb 36f
4:42am 16 24 mph 1018.4mb 36f
4:36am 22 29 mph 1018.3mb 36f
4:30am 15 22 mph 1018.6mb 36f
4:24am 17 22 mph 1018.6mb 36f
4:18am 18 24 mph 1018.4mb 36f
4:12am 16 22 mph 1018.2mb 36f
4:06am 14 21 mph 1018mb 36f
4:00am 16 21 mph 1018.1mb 36f
3:54am 14 20 mph 1018mb 36f
3:48am 18 24 mph 1018.1mb 36f
3:42am 16 22 mph 1018mb 36f
3:36am 16 20 mph 1018mb 36f
3:30am 14 21 mph 1018.2mb 36f
3:24am 15 21 mph 1018.1mb 36f
3:18am 14 20 mph 1018.2mb 36f
3:12am 15 20 mph 1018.4mb 36f
3:06am 14 17 mph 1018.4mb 36f
3:00am 16 20 mph 1018.5mb 36f
2:54am 13 17 mph 1018.3mb 36f
2:48am 13 26 mph 1018.1mb 35f
2:42am 14 17 mph 1017.7mb 35f
2:36am 10 21 mph 1017.7mb 35f
2:30am 16 21 mph 1017.6mb 35f
2:24am 18 28 mph 1017.5mb 35f
2:18am 16 22 mph 1017.5mb 35f
2:12am 14 21 mph 1017.3mb 35f
2:06am 14 21 mph 1017.1mb 35f
2:00am 14 20 mph 1017mb 35f
1:54am 14 17 mph 1017.2mb 35f
1:48am 13 17 mph 1017.1mb 35f
1:42am 14 16 mph 1017.1mb 35f
1:36am 13 18 mph 1017.1mb 35f
1:30am 15 20 mph 1017.3mb 35f
1:24am 13 21 mph 1017.1mb 35f
1:18am 17 26 mph 1017mb 35f
1:12am 18 24 mph 1017.1mb 35f
1:06am 20 28 mph 1017.2mb 36f
1:00am 16 22 mph 1017.2mb 36f
12:54am 15 21 mph 1017.1mb 36f
12:48am 15 20 mph 1017.1mb -
12:42am 15 20 mph 1017mb -
12:36am 16 22 mph 1017mb -
12:30am 15 21 mph 1017.2mb 36f
12:24am 17 22 mph 1017.3mb 36f
12:18am 17 21 mph 1017.2mb 36f
12:12am 16 20 mph 1017.2mb 36f
12:06am 16 20 mph 1017.3mb 36f
12:00am 14 20 mph 1017.4mb 36f
Fri 04/28 11:54pm 14 22 mph 1017.5mb 36f
11:48pm 17 21 mph 1017.3mb 36f
11:42pm 17 23 mph 1017.2mb 36f
11:36pm 16 22 mph 1017.2mb 37f
11:30pm 16 18 mph 1017.2mb 37f
11:24pm 16 20 mph 1017.1mb 37f
11:18pm 17 20 mph 1017mb 37f
11:12pm 15 18 mph 1017mb 37f
11:06pm 16 18 mph 1016.9mb 37f
11:00pm 16 17 mph 1016.7mb 37f
10:54pm 14 15 mph 1016.6mb 37f
10:48pm 14 16 mph 1016.4mb 37f
10:42pm 11 16 mph 1016.4mb 37f
10:36pm 13 14 mph 1016.3mb 37f
10:30pm 14 16 mph 1016.3mb 37f
10:24pm 13 16 mph 1016.2mb 37f
10:18pm 13 17 mph 1016mb 37f
10:12pm 14 17 mph 1015.7mb 37f
10:06pm 15 18 mph 1015.7mb 37f
10:00pm 13 16 mph 1015.7mb 37f
9:54pm 14 15 mph 1015.6mb 37f
9:48pm 13 15 mph 1015.6mb 37f
9:42pm 13 15 mph 1015.6mb 37f
9:36pm 10 13 mph 1015.7mb 37f
9:30pm 10 14 mph 1015.8mb 37f
9:24pm 10 13 mph 1015.7mb 37f
9:18pm 10 13 mph 1015.5mb 37f
9:12pm 9 13 mph 1015.3mb 37f
9:06pm 9 13 mph 1015.3mb 37f
9:00pm 9 13 mph 1015.2mb 37f
8:54pm 9 11 mph 1015.1mb 37f
8:48pm 9 10 mph 1015.1mb 37f
8:42pm 9 11 mph 1014.9mb 37f
8:36pm 11 13 mph 1014.9mb 37f
8:30pm 9 13 mph 1014.8mb 37f
8:24pm 9 11 mph 1014.7mb 37f
8:18pm 8 11 mph 1014.6mb 37f
8:12pm 10 13 mph 1014.6mb 37f
8:06pm 9 11 mph 1014.5mb 37f
8:00pm 9 13 mph 1014.6mb 37f
7:48pm 9 14 mph 1014.6mb 37f
7:42pm 9 14 mph 1014.5mb 37f
7:36pm 9 14 mph 1014.4mb 37f
7:30pm 11 17 mph 1014.3mb 37f
7:24pm 9 16 mph 1014.2mb 37f
7:18pm 11 15 mph 1014.2mb 37f
7:12pm 13 14 mph 1014.2mb 37f
7:06pm 9 16 mph 1014.1mb 37f
7:00pm 11 15 mph 1014.1mb 37f
6:48pm 13 18 mph 1014.1mb 37f
6:42pm 15 17 mph 1014mb 37f
6:36pm 14 16 mph 1014.1mb 37f
6:30pm 14 18 mph 1014mb 37f
6:24pm 14 20 mph 1014.1mb 37f
6:18pm 14 17 mph 1014mb 37f
6:12pm 14 17 mph 1013.9mb 37f
6:06pm 14 16 mph 1013.9mb 37f
6:00pm 13 15 mph 1013.9mb 37f
5:54pm 13 17 mph 1013.8mb 37f
5:48pm 13 16 mph 1013.7mb 37f
5:42pm 11 15 mph 1013.6mb 37f
5:36pm 10 16 mph 1013.6mb 37f
5:30pm 10 17 mph 1013.7mb 37f
5:24pm 13 16 mph 1013.5mb 37f
5:18pm 11 14 mph 1013.4mb 38f
5:12pm 10 14 mph 1013.4mb 38f
5:06pm 10 14 mph 1013.3mb 38f
5:00pm 11 15 mph 1013.3mb 38f
4:48pm 10 16 mph 1013.4mb 38f
4:42pm 11 17 mph 1013.3mb 38f
4:36pm 11 15 mph 1013.1mb 38f
4:30pm 10 14 mph 1013mb 38f
4:24pm 13 16 mph 1012.9mb 39f
4:18pm 11 14 mph 1012.8mb 40f
4:12pm 11 14 mph 1012.8mb 40f
4:06pm 13 15 mph 1012.7mb 40f
4:00pm 14 15 mph 1012.6mb 40f
3:54pm 14 16 mph 1012.6mb 40f
3:48pm 13 15 mph 1012.5mb 40f
3:42pm 13 15 mph 1012.4mb 40f
3:36pm 13 16 mph 1012.4mb 40f
3:30pm 11 16 mph 1012.3mb 40f
3:24pm 14 20 mph 1012.2mb 39f
3:18pm 13 16 mph 1012.3mb 39f
3:12pm 13 17 mph 1012.3mb 39f
3:06pm 15 18 mph 1012.2mb 39f
3:00pm 14 17 mph 1012.3mb 39f
2:54pm 16 23 mph 1012.4mb 39f
2:48pm 16 22 mph 1012.3mb 39f
2:42pm 17 22 mph 1012.4mb 39f
2:36pm 16 24 mph 1012.3mb 39f
2:30pm 20 23 mph 1012.4mb 38f
2:24pm 20 23 mph 1012.3mb 39f
2:18pm 21 24 mph 1012.3mb 38f
2:12pm 20 24 mph 1012.3mb 39f
2:06pm 20 28 mph 1012.2mb 38f
2:00pm 22 26 mph 1012.3mb 39f
1:54pm 20 24 mph 1012mb 39f
1:48pm 17 22 mph 1011.9mb 39f
1:42pm 16 20 mph 1011.8mb 39f
1:36pm 15 21 mph 1011.8mb 39f
1:30pm 18 23 mph 1011.7mb 38f
1:24pm 15 20 mph 1011.6mb 39f
1:18pm 13 22 mph 1011.4mb 39f
1:12pm 15 25 mph 1011.3mb 38f
1:06pm 18 22 mph 1011.3mb 38f
1:00pm 18 25 mph 1011.4mb 38f
12:54pm 16 20 mph 1011.3mb 39f
12:48pm 15 21 mph 1011.3mb 39f
12:42pm 17 21 mph 1011.3mb 39f
12:36pm 17 23 mph 1011.3mb 39f
12:30pm 22 26 mph 1011.1mb 38f
12:24pm 15 20 mph 1011.1mb 38f
12:18pm 14 17 mph 1011mb 38f
12:12pm 14 16 mph 1010.9mb 38f
12:06pm 13 20 mph 1010.7mb 38f
12:00pm 16 20 mph 1010.7mb 39f
11:54am 18 22 mph 1010.7mb 38f
11:48am 15 23 mph 1010.7mb 38f
11:42am 14 17 mph 1010.5mb 38f
11:36am 16 21 mph 1010.5mb 38f
11:30am 17 22 mph 1010.5mb 38f
11:24am 18 23 mph 1010.4mb 38f
11:18am 17 22 mph 1010.3mb 38f
11:12am 21 25 mph 1010.2mb 37f
11:06am 20 25 mph 1010.1mb 38f
11:00am 17 26 mph 1009.9mb 38f
10:54am 17 28 mph 1010mb 38f
10:48am 18 24 mph 1009.9mb 37f
10:42am 18 25 mph 1009.8mb 37f
10:36am 20 25 mph 1009.7mb 37f
10:30am 16 25 mph 1009.7mb 37f
10:24am 16 21 mph 1009.8mb 37f
10:18am 16 21 mph 1009.8mb 36f
10:12am 17 22 mph 1009.8mb 36f
10:06am 18 24 mph 1009.7mb 36f
10:00am 17 23 mph 1009.6mb 37f
9:48am 13 16 mph 1009.4mb 37f
9:42am 15 17 mph 1009.4mb 37f
9:36am 14 18 mph 1009.3mb 36f
9:30am 15 17 mph 1009.2mb 36f
9:24am 10 13 mph 1009.2mb 36f
9:18am 9 11 mph 1009.1mb 36f
9:12am 9 14 mph 1009.2mb 36f
9:06am 13 15 mph 1009.2mb 36f
9:00am 11 18 mph 1009.1mb 36f
8:54am 16 18 mph 1009.1mb 36f
8:48am 14 17 mph 1009mb 36f
8:42am 15 17 mph 1009.1mb 36f
8:36am 15 18 mph 1009.1mb 36f
8:30am 13 17 mph 1009.1mb 36f
8:24am 14 20 mph 1009.1mb 36f
8:18am 14 21 mph 1009.1mb 36f
8:12am 13 16 mph 1009.1mb 36f
8:06am 11 15 mph 1009mb 36f
8:00am 15 18 mph 1009mb 35f
7:54am 14 16 mph 1008.9mb 35f
7:48am 11 16 mph 1009mb 36f
7:42am 14 17 mph 1008.9mb 35f
7:36am 10 15 mph 1008.8mb 36f
7:30am 11 15 mph 1008.7mb 35f
7:24am 11 15 mph 1008.7mb 35f
7:18am 11 17 mph 1008.7mb 35f
7:12am 13 18 mph 1008.6mb 35f
7:06am 10 14 mph 1008.7mb 35f
7:00am 11 16 mph 1008.6mb 35f
6:30am 10 13 mph 1008.3mb 35f
6:24am 9 13 mph 1008.3mb 35f
6:18am 8 10 mph 1008.2mb 35f
6:12am 9 14 mph 1008.2mb 35f
6:06am 10 13 mph 1008.1mb 35f
6:00am 10 15 mph 1007.9mb 35f
5:54am 10 15 mph 1007.9mb 35f
5:48am 11 14 mph 1007.8mb 35f
5:42am 8 11 mph 1007.5mb 35f
5:36am 9
mph
1007.6mb 35f
5:30am 7 9 mph 1007.4mb 35f
5:24am 5 8 mph 1007.3mb 35f
5:18am 7 11 mph 1007.1mb 35f
5:12am 10 13 mph 1007.1mb 35f
5:06am 9 14 mph 1007mb 35f
5:00am 10 14 mph 1007.1mb 36f
4:54am 11 15 mph 1007mb 36f
4:48am 13 16 mph 1007mb 36f
4:42am 10 18 mph 1006.9mb 36f
4:36am 13 16 mph 1006.9mb 36f
4:30am 9 13 mph 1006.8mb 36f
4:24am 11 13 mph 1006.7mb 36f
4:18am 10 13 mph 1006.6mb 36f
4:12am 9 11 mph 1006.6mb 36f
4:06am 9 14 mph 1006.6mb 36f
4:00am 11 14 mph 1006.5mb 36f
3:54am 11 17 mph 1006.4mb 36f
3:48am 14 16 mph 1006.3mb 36f
3:42am 13 16 mph 1006.3mb 36f
3:36am 14 16 mph 1006.2mb 37f
3:30am 10 13 mph 1006.1mb 37f
3:24am 9 14 mph 1006mb 37f
3:18am 11 14 mph 1005.9mb 36f
3:12am 11 14 mph 1005.9mb 37f
3:06am 11 17 mph 1005.9mb 37f
3:00am 15 18 mph 1005.9mb 37f
2:54am 10 16 mph 1005.9mb 37f
2:48am 8 10 mph 1005.9mb 37f
2:42am 7 9 mph 1005.8mb 36f
2:36am 8 10 mph 1005.8mb 36f
2:30am 7 8 mph 1005.7mb 36f
2:18am 2 3 mph 1005.6mb 35f
2:12am 2 3 mph 1005.6mb 35f
2:06am 2 3 mph 1005.6mb 35f
2:00am 2 6 mph 1005.6mb 35f
1:54am 2 3 mph 1005.5mb 35f
1:48am 2 5 mph 1005.5mb 35f
1:42am 5 6 mph 1005.5mb 35f
1:36am 2 5 mph 1005.5mb 35f
1:30am 3
mph
1005.4mb 35f
1:24am 2 5 mph 1005.4mb 35f
1:18am 2 3 mph 1005.4mb 35f
1:12am 2 5 mph 1005.3mb 35f
1:06am 3 5 mph 1005.2mb 35f
1:00am 3 5 mph 1005.2mb 35f
12:54am 2 5 mph 1005.2mb 35f
12:48am 3 5 mph 1005.2mb 35f
12:42am 2 3 mph 1005.1mb 35f
12:36am 2 3 mph 1005mb 35f
12:30am 2 6 mph 1004.9mb 35f
12:24am 5 6 mph 1004.8mb 35f
12:18am 5 6 mph 1004.8mb 35f
12:12am 5 6 mph 1004.7mb 35f
12:06am 6 7 mph 1004.6mb 35f
12:00am 6 7 mph 1004.5mb 35f
Thu 04/27 11:54pm 6 9 mph 1004.5mb 35f
11:48pm 6 8 mph 1004.4mb 35f
11:42pm 7 9 mph 1004.3mb 35f
11:36pm 6 11 mph 1004.2mb 35f
11:30pm 5 7 mph 1004.2mb 34f
11:24pm 5 6 mph 1004.2mb 34f
11:18pm 5 8 mph 1004.2mb 34f
11:12pm 8 11 mph 1004.1mb 34f
11:06pm 7
mph
1004mb 34f
11:00pm 6
mph
1004mb 34f
10:54pm 6 7 mph 1003.9mb 34f
10:48pm 5 7 mph 1003.8mb 33f
10:42pm 5 6 mph 1003.8mb 33f
10:36pm 5 6 mph 1003.7mb 33f
10:30pm 6 7 mph 1003.6mb 33f
10:24pm 6 9 mph 1003.5mb 33f
10:18pm 9 10 mph 1003.4mb 33f
10:12pm 7 10 mph 1003.4mb 33f
10:06pm 8 14 mph 1003.4mb 33f
10:00pm 9 13 mph 1003.4mb 33f
9:54pm 9 13 mph 1003.3mb 33f
9:48pm 8 9 mph 1003.1mb 33f
9:42pm 10 17 mph 1002.9mb 33f
9:36pm 10 15 mph 1002.9mb 33f
9:30pm 9 15 mph 1002.7mb 34f
9:24pm 13 16 mph 1002.5mb 34f
9:18pm 10 14 mph 1002.5mb 35f
9:12pm 9 15 mph 1002.3mb 35f
9:06pm 10 14 mph 1002.3mb 35f
9:00pm 10 14 mph 1002.1mb 35f
8:54pm 8 13 mph 1001.9mb 35f
8:48pm 9 14 mph 1001.9mb 36f
8:42pm 11 20 mph 1001.9mb 38f
8:36pm 15 20 mph 1001.7mb 40f
8:30pm 14 20 mph 1001.5mb 40f
8:24pm 15 22 mph 1001.4mb 40f
8:18pm 11 14 mph 1001.2mb 40f
8:12pm 10 15 mph 1001.1mb 40f
8:06pm 10 18 mph 1001mb 40f
8:00pm 9 16 mph - 40f
7:54pm 11 16 mph - 40f
7:48pm 10 14 mph 1000.8mb 40f
7:42pm 11 16 mph 1000.6mb 40f
7:36pm 9 16 mph 1000.5mb 41f
7:30pm 10 16 mph 1000.5mb 41f
7:24pm 11 17 mph 1000.4mb 41f
7:18pm 15 23 mph 1000.3mb 41f
7:12pm 15 23 mph 1000.2mb 42f
7:06pm 22 25 mph 1000.1mb 42f
7:00pm 20 26 mph 1000mb 42f
6:48pm 18 22 mph 999.8mb 43f
6:42pm 16 23 mph 999.8mb 43f
6:36pm 21 24 mph 999.6mb 43f
6:30pm 18 28 mph 999.4mb 43f
6:24pm 22 26 mph 999.3mb 44f
6:18pm 22 28 mph 999.2mb 44f
6:12pm 21 26 mph 999.3mb 44f
6:06pm 21 31 mph 999.3mb 44f
6:00pm 23 28 mph 999.2mb 44f
5:48pm 21 29 mph 998.6mb 45f
5:42pm 22 29 mph 998.3mb 46f
5:36pm 24 30 mph 998mb 46f
5:30pm 24 29 mph 997.9mb 46f
5:24pm 24 33 mph 997.9mb 46f
5:18pm 29 32 mph 997.8mb 45f
5:12pm 29 37 mph 997.7mb 46f
5:06pm 23 36 mph 997.5mb 46f
5:00pm 32 47 mph 997.1mb 48f
4:48pm 29 41 mph 996.4mb 49f
4:42pm 34 43 mph 996mb 50f
4:36pm 21 31 mph 995.8mb 51f
4:30pm 26 40 mph 995.6mb 51f
4:24pm 25 39 mph 995.4mb 52f
4:18pm 30 39 mph 995.2mb 53f
4:12pm 21 36 mph 995mb 53f
4:06pm 28 36 mph 994.9mb 53f
4:00pm 25 40 mph 994.8mb 54f
3:54pm 26 44 mph 994.6mb 54f
3:48pm 25 37 mph 994.5mb 54f
3:42pm 30 38 mph 994.4mb 54f
3:36pm 26 32 mph 994.2mb 55f
3:30pm 25 33 mph 994.1mb 55f
3:24pm 29 37 mph 994mb 56f
3:18pm 31 39 mph 993.9mb 57f
3:12pm 26 40 mph 993.7mb 58f
3:06pm 18 30 mph 993.5mb 60f
3:00pm 25 37 mph 993.1mb 59f
2:54pm 29 34 mph 992.8mb 61f
2:48pm 26 38 mph 992.6mb 61f
2:42pm 22 29 mph 992.3mb 63f
2:36pm 7 15 mph 991.9mb 65f
2:30pm 10 15 mph 991.6mb 64f
2:24pm 13 20 mph 991.4mb 64f
2:18pm 10 18 mph 991.4mb 64f
2:12pm 9 18 mph 991.5mb 65f
2:06pm 11 17 mph 991.5mb 65f
2:00pm 6 15 mph 991.6mb 66f
1:54pm 8 16 mph 991.5mb 65f
1:48pm 9 13 mph 991.7mb 65f
1:42pm 10 17 mph 991.3mb 65f
1:36pm 11 17 mph 991.3mb 65f
1:30pm 14 17 mph 991.5mb 65f
1:24pm 10 14 mph 991.6mb 64f
1:18pm 11 17 mph 991.6mb 64f
1:12pm 13 17 mph 991.9mb 64f
1:06pm 9 13 mph 991.9mb 65f
1:00pm 10 18 mph 992mb 65f
12:54pm 10 13 mph 992mb 65f
12:48pm 10 13 mph 992.1mb 63f
12:42pm 8 13 mph 992.4mb 63f
12:36pm 9 13 mph 992.5mb 63f
12:30pm 11 17 mph 992.6mb 63f
12:24pm 13 16 mph 992.4mb 63f
12:18pm 8 15 mph 992.5mb 63f
12:12pm 10 22 mph 992.5mb 64f
12:06pm 13 22 mph 992.4mb 64f
12:00pm 10 20 mph 992.3mb 64f
11:48am 10 16 mph 992.6mb 64f
11:42am 11 21 mph 992.6mb 64f
11:36am 11 17 mph 992.7mb 64f
11:30am 10 18 mph 992.7mb 64f
11:24am 14 20 mph 992.4mb 63f
11:18am 15 18 mph 992.4mb 62f
11:12am 8 16 mph 992.2mb 62f
11:06am 11 16 mph 991.8mb 60f
11:00am 10 16 mph 992.4mb 62f
10:54am 10 15 mph 992.7mb 61f
10:48am 10 16 mph 992.6mb 61f
10:42am 10 16 mph 992.6mb 61f
10:36am 16 21 mph 992.8mb 62f
10:30am 17 25 mph 992.9mb 62f
10:24am 9 16 mph 992.9mb 61f
10:18am 9 15 mph 993mb 61f
10:12am 9 17 mph 993.1mb 60f
10:06am 11 20 mph 992.9mb 60f
10:00am 14 21 mph 992.7mb 59f
9:54am 11 17 mph 992.8mb 59f
9:48am 14 21 mph 992.8mb 58f
9:42am 13 18 mph 992.8mb 58f
9:36am 11 15 mph 992.8mb 57f
9:30am 10 16 mph 993mb 57f
9:24am 10 16 mph 993.2mb 56f
9:18am 10 14 mph 993.3mb 56f
9:12am 10 21 mph 993.3mb 55f
9:06am 13 17 mph 993.4mb 55f
9:00am 10 18 mph 993.5mb 55f
8:54am 14 20 mph 993.5mb 54f
8:48am 14 22 mph 993.5mb 54f
8:42am 15 21 mph 993.6mb 54f
8:36am 14 24 mph 993.8mb 54f
8:30am 15 21 mph 993.6mb 54f
8:24am 16 22 mph 993.5mb 55f
8:18am 15 22 mph 993.6mb 55f
8:12am 14 21 mph 993.5mb 56f
8:06am 14 20 mph 993.3mb 55f
8:00am 13 20 mph 993.4mb 55f
7:54am 11 17 mph 993.4mb 55f
7:48am 10 17 mph 993.4mb 55f
7:42am 11 16 mph 993.6mb 55f
7:36am 10 14 mph 993.5mb 55f
7:30am 11 18 mph 993.1mb 54f
7:24am 13 17 mph 993.2mb 54f
7:18am 11 16 mph 993.4mb 54f
7:12am 10 15 mph 993.6mb 54f
7:06am 11 20 mph 993.5mb 54f
7:00am 13 18 mph 993.9mb 53f
6:48am 13 18 mph 994.1mb 53f
6:42am 11 18 mph 994.1mb 53f
6:36am 11 18 mph 994.2mb 53f
6:30am 9 18 mph 994.4mb 53f
6:24am 11 17 mph 994.4mb 53f
6:18am 9 13 mph 994.6mb 53f
6:12am 10 15 mph 994.7mb 53f
6:06am 10 16 mph 994.9mb 53f
6:00am 10 15 mph 995mb 53f
5:54am 10 16 mph 995mb 53f
5:48am 10 17 mph 995mb 53f
5:42am 9 13 mph 995.1mb 53f
5:36am 8 14 mph 995.1mb 53f
5:30am 9 11 mph 995.1mb 53f
5:24am 8 13 mph 995mb 53f
5:18am 7 11 mph 995.1mb 53f
5:12am 8 15 mph 995.1mb 53f
5:06am 9 13 mph 995.1mb 53f
5:00am 9 11 mph 995.1mb 52f
4:54am 10 13 mph 994.9mb 52f
4:48am 10 14 mph 995.5mb 53f
4:42am 10 14 mph 995.6mb 53f
4:36am 9 11 mph 996.3mb 53f
4:30am 9 11 mph 996.2mb 53f
4:24am 6 9 mph 996mb 53f
4:18am 5 6 mph 996.4mb 53f
4:12am 6 7 mph 996.5mb 52f
4:06am 5 7 mph 996.1mb 52f
4:00am 3 11 mph 996.3mb 52f
3:54am 7 9 mph 996.7mb 53f
3:48am 6 9 mph 996.5mb 53f
3:42am 8 10 mph 996.3mb 53f
3:36am 8 10 mph 996.2mb 53f
3:30am 8 10 mph 996.3mb 53f
3:24am 7 10 mph 996.7mb 53f
3:18am 7 10 mph 997mb 53f
3:12am 8 10 mph 996.7mb 53f
3:06am 9 11 mph 996.5mb 53f
3:00am 9 11 mph 996.7mb 53f
2:54am 9 10 mph 996.9mb 52f
2:48am 6 9 mph 997.1mb 53f
2:42am 6 8 mph 997.2mb 52f
2:36am 3 7 mph 997.3mb 53f
2:30am 6 8 mph 997.4mb 53f
2:24am 6 9 mph 997.4mb 54f
2:18am 6 9 mph 997.4mb 53f
2:12am 8 11 mph 997.4mb 54f
2:06am 6 8 mph 997.4mb 53f
2:00am 7 9 mph 997.4mb 52f
1:54am 8 10 mph 997.4mb 53f
1:48am 9 11 mph 997.5mb 53f
1:42am 7 9 mph 997.7mb 54f
1:36am 6 9 mph 997.8mb 53f
1:30am 5 9 mph 998.2mb 54f
1:24am 5 7 mph 998.3mb 54f
1:18am 3 6 mph 998.2mb 54f
1:12am 3 6 mph 998.4mb 53f
1:06am 6 7 mph 998.4mb 54f
1:00am 5 8 mph 998.4mb 54f
12:54am 5 9 mph 998.3mb 53f
12:48am 8 11 mph 998.1mb 53f
12:42am 7 9 mph 998.3mb 53f
12:36am 7 9 mph 998.2mb 53f
12:30am 6 7 mph 998.3mb 53f
12:24am 6 8 mph 998.3mb 53f
12:18am 6 8 mph 998.1mb 53f
12:12am 7 9 mph 998.1mb 53f
12:06am 7 9 mph 998.2mb 52f
12:00am 8 10 mph 998.2mb 52f
Wed 04/26 11:54pm 7 10 mph 998.5mb 52f
11:48pm 8 10 mph 998.6mb 52f
11:42pm 7 10 mph 998.7mb 52f
11:36pm 8 11 mph 998.9mb 52f
11:30pm 6 8 mph 999.2mb 52f
11:24pm 6 8 mph 999.2mb 52f
11:18pm 7 11 mph 999.3mb 53f
11:12pm 6 10 mph 999.3mb 53f
11:06pm 6 10 mph 999.4mb 53f
11:00pm 5 8 mph 999.5mb 53f
10:54pm 5 7 mph 999.5mb 53f
10:48pm 6 9 mph 999.7mb 53f
10:42pm 7 9 mph 999.8mb 53f
10:36pm 5 8 mph 999.7mb 52f
10:30pm 5 8 mph 999.6mb 52f
10:24pm 7 9 mph 999.5mb 52f
10:18pm 5 10 mph 999.4mb 52f
10:12pm 7 13 mph 999.2mb 52f
10:06pm 8 10 mph 999.1mb 52f
10:00pm 7 11 mph 999.1mb 52f
9:54pm 7 13 mph 999mb 52f
9:48pm 7 9 mph 999.1mb 52f
9:42pm 6 11 mph 999.1mb 52f
9:36pm 8 11 mph 999.3mb 52f
9:30pm 7 11 mph 999.4mb 52f
9:24pm 8 13 mph 999.3mb 52f
9:18pm 9 16 mph 999.2mb 53f
9:12pm 8 11 mph 999.4mb 53f
9:06pm 10 14 mph 999.5mb 53f
9:00pm 8 14 mph 999.4mb 53f
8:48pm 9 15 mph 999.3mb 53f
8:42pm 11 16 mph 999mb 53f
8:36pm 11 15 mph 999.1mb 53f
8:30pm 9 16 mph 999.2mb 53f
8:24pm 11 17 mph 999mb 53f
8:18pm 11 18 mph 999mb 53f
8:12pm 10 16 mph 998.9mb 53f
8:06pm 11 17 mph 998.7mb 53f
8:00pm 10 17 mph 998.8mb 53f
7:48pm 10 16 mph 999mb 53f
7:42pm 10 17 mph 998.9mb 53f
7:36pm 9 17 mph 998.9mb 53f
7:30pm 10 14 mph 998.8mb 53f
7:24pm 9 13 mph 998.9mb 53f
7:18pm 8 14 mph 999mb 53f
7:12pm 8 14 mph 999mb 54f
7:06pm 9 11 mph 998.9mb 54f
7:00pm 6 13 mph 998.9mb 54f
6:48pm 9 15 mph 998.9mb 54f
6:42pm 8 15 mph 998.7mb 54f
6:36pm 11 17 mph 998.6mb 55f
6:30pm 13 15 mph 998.8mb 55f
6:24pm 9 14 mph 998.7mb 55f
6:18pm 10 17 mph 998.6mb 55f
6:12pm 13 20 mph 998.6mb 55f
6:06pm 14 21 mph 998.4mb 55f
6:00pm 16 22 mph 998.5mb 55f
5:54pm 14 21 mph 998.6mb 55f
5:48pm 10 20 mph 999.3mb 56f
5:42pm 10 22 mph 998.9mb 56f
5:36pm 17 24 mph 998.5mb 57f
5:30pm 16 24 mph 998.3mb 57f
5:24pm 16 29 mph 998.2mb 57f
5:18pm 14 25 mph 997.9mb 57f
5:12pm 21 26 mph 997.8mb 57f
5:06pm 16 25 mph 997.7mb 57f
5:00pm 20 29 mph 997.7mb 57f
4:48pm 22 29 mph 998mb 58f
4:42pm 16 24 mph 998mb 58f
4:36pm 23 28 mph 998.2mb 58f
4:30pm 16 24 mph 998.2mb 58f
4:24pm 17 30 mph 998mb 58f
4:18pm 21 30 mph 998mb 58f
4:12pm 18 26 mph 998mb 58f
4:06pm 16 24 mph 998.1mb 58f
4:00pm 15 22 mph 998.1mb 57f
3:54pm 13 21 mph 998.4mb 57f
3:48pm 16 22 mph 998.6mb 57f
3:42pm 16 23 mph 998.6mb 57f
3:36pm 13 21 mph 998.7mb 57f
3:30pm 15 32 mph 998.7mb 57f
3:24pm 16 26 mph 998.4mb 57f
3:18pm 20 26 mph 998.3mb 56f
3:12pm 16 26 mph 998.4mb 56f
3:06pm 18 28 mph 998.5mb 56f
3:00pm 17 24 mph 998.6mb 56f
2:54pm 18 26 mph 998.7mb 56f
2:48pm 17 26 mph 998.6mb 56f
2:42pm 17 25 mph 998.7mb 56f
2:36pm 17 23 mph 998.8mb 55f
2:30pm 17 23 mph 999.1mb 55f
2:24pm 16 30 mph 999.2mb 56f
2:18pm 17 24 mph 999.3mb 56f
2:12pm 14 28 mph 999.3mb 56f
2:06pm 18 25 mph 999.3mb 57f
2:00pm 20 29 mph 999.3mb 57f
1:54pm 14 29 mph 999.3mb 57f
1:48pm 21 29 mph 999.5mb 57f
1:42pm 21 30 mph 999.6mb 57f
1:36pm 17 29 mph 999.6mb 57f
1:30pm 22 31 mph 999.5mb 58f
1:24pm 18 28 mph 999.5mb 58f
1:18pm 18 28 mph 999.7mb 58f
1:12pm 18 29 mph 999.8mb 58f
1:06pm 16 26 mph 999.7mb 58f
1:00pm 15 26 mph 999.9mb 58f
12:54pm 16 24 mph 1000.1mb 58f
12:48pm 22 33 mph 1000.2mb 57f
12:42pm 18 29 mph 1000.3mb 56f
12:36pm 20 26 mph 1000.6mb 56f
12:30pm 15 23 mph 1000.6mb 56f
12:24pm 11 24 mph 1000.8mb 55f
12:18pm 14 23 mph 1000.9mb 55f
12:12pm 11 24 mph 1000.8mb 55f
12:06pm 17 28 mph 1001mb 55f
12:00pm 13 24 mph 1001.1mb 55f
11:54am 17 30 mph 1001.3mb 54f
11:48am 16 25 mph 1001.5mb 54f
11:42am 14 25 mph 1001.6mb 54f
11:36am 17 22 mph 1001.8mb 53f
11:30am 15 26 mph 1002mb 53f
11:24am 17 23 mph 1002.3mb 53f
11:18am 17 23 mph 1002.5mb 53f
11:12am 15 24 mph 1002.7mb 53f
11:06am 15 24 mph 1002.6mb 53f
11:00am 18 25 mph 1002.7mb 53f
10:54am 15 21 mph 1002.7mb 53f
10:48am 11 23 mph 1002.9mb 52f
10:42am 13 21 mph 1002.9mb 52f
10:36am 11 17 mph 1002.9mb 52f
10:30am 15 20 mph 1003mb 52f
10:24am 17 22 mph 1003.1mb 52f
10:18am 10 18 mph 1003.1mb 52f
10:12am 15 22 mph 1003.1mb 52f
10:06am 15 21 mph 1003.1mb 52f
10:00am 14 20 mph 1003.1mb 52f
9:54am 13 18 mph 1003.2mb 52f
9:48am 14 22 mph 1003mb 52f
9:42am 14 23 mph 1003mb 52f
9:36am 14 22 mph 1003.1mb 52f
9:30am 15 22 mph 1002.9mb 52f
9:24am 11 24 mph 1002.9mb 52f
9:18am 14 21 mph 1003.1mb 52f
9:12am 15 21 mph 1003.3mb 52f
9:06am 14 18 mph 1003.3mb 52f
9:00am 14 22 mph 1003.3mb 52f
8:54am 14 21 mph 1003.4mb 51f
8:48am 13 18 mph 1003.3mb 52f
8:42am 14 18 mph 1003.4mb 51f
8:36am 11 20 mph 1003.5mb 52f
8:30am 11 17 mph 1003.7mb 51f